Location: Rancho Del Sol Observatory
(38.7214°N, 120.6350°W)
Time: 18:03:44
(UTC-08:00)

Courier 1B - Pass Details

Date: 20 January 2020
Orbit: 962 x 1209 km, 28.3° (Epoch: 25 February)

Event Time Altitude Azimuth Distance (km) Brightness Sun altitude
Exits shadow 03:16:49 15° 132° (SE) 2,746 10.1 -46.5°
Drops below altitude 10° 03:18:58 10° 117° (ESE) 3,107 10.5 -46.1°
Sets 03:23:01 0° 98° (E) 4,095 11.4 -45.4°
